Hourly Data Report for August 19, 2013

All times are specified in Local Standard Time (LST). Add 1 hour to adjust for Daylight Saving Time where and when it is observed.

VICTORIA INTL A
BRITISH COLUMBIA

48°38'50.000" N
123°25'33.000" W
19.50 m
1018621
71799
YYJ

Download Data

Hourly Data (August 2013)
Hourly Data Report for August 19, 2013
Temp Definition
°C
Dew Point Temp Definition
°C
Rel Hum Definition
%
Wind Dir Definition
10's deg

Wind Spd Definition
km/h
Visibility Definition
km
Stn Press Definition
kPa
Hmdx Definition


Wind Chill Definition


Weather Definition


TIME
00:00 Legend Double Dagger 12.1 10.2 88 29 3 48.3 101.60     LegendNANA
01:00 Legend Double Dagger 12.2 10.0 86 7 3 48.3 101.57     Mostly Cloudy
02:00 Legend Double Dagger 11.8 10.1 89 23 5 48.3 101.57     LegendNANA
03:00 Legend Double Dagger 12.0 9.9 87 16 4 48.3 101.56     LegendNANA
04:00 Legend Double Dagger 12.7 10.8 88 17 4 48.3 101.57     Cloudy
05:00 Legend Double Dagger 13.9 11.1 83 10 1 48.3 101.61     LegendNANA
06:00 Legend Double Dagger 14.3 11.5 83 7 1 48.3 101.60     LegendNANA
07:00 Legend Double Dagger 15.4 11.8 79 23 4 48.3 101.62     Mostly Cloudy
08:00 Legend Double Dagger 14.3 11.1 81 11 7 48.3 101.64     LegendNANA
09:00 Legend Double Dagger 16.5 11.9 74 14 8 32.2 101.68     LegendNANA
10:00 Legend Double Dagger 17.0 12.2 73 12 8 32.2 101.71     Mostly Cloudy
11:00 Legend Double Dagger 16.7 12.3 75 10 9 32.2 101.74     LegendNANA
12:00 Legend Double Dagger 16.9 12.3 74 12 15 32.2 101.74     LegendNANA
13:00 Legend Double Dagger 17.2 11.8 70 12 18 32.2 101.73     Mostly Cloudy
14:00 Legend Double Dagger 19.8 12.7 63 8 16 32.2 101.70     LegendNANA
15:00 Legend Double Dagger 20.8 13.8 64 12 15 32.2 101.66     LegendNANA
16:00 Legend Double Dagger 21.9 13.4 58 6 12 32.2 101.62 25   Mainly Clear
17:00 Legend Double Dagger 18.3 11.2 63 4 18 32.2 101.60     LegendNANA
18:00 Legend Double Dagger 19.2 10.8 58 5 10 32.2 101.59     LegendNANA
19:00 Legend Double Dagger 18.5 10.4 59 31 3 32.2 101.61     Mainly Clear
20:00 Legend Double Dagger 15.3 10.5 73 25 6 32.2 101.64     LegendNANA
21:00 Legend Double Dagger 15.7 11.9 78 26 8 48.3 101.68     LegendNANA
22:00 Legend Double Dagger 17.1 12.3 73 29 17 48.3 101.70     Clear
23:00 Legend Double Dagger 16.4 11.6 73 29 15 48.3 101.71     LegendNANA

Notes on Data Quality.

Legend

  • E = Estimated
  • M = Missing
  • NA = Not Available
  • ‡ = Partner data that is not subject to review by the National Climate Archives
Date modified: